| time (UTC) | temp C | wind direction | speed KPH | gust KPH | rain 1hr cm | rain 24hr cm | rain mn cm | humidity % | barometer mb |
| 20260503004005 | 14 | 227 | 8.0 | 16.1 | 0.00 | 0.00 | 0.00 | 100 | 1018.6 |
| 20260503002505 | 15 | 239 | 11.3 | 19.3 | 0.00 | 0.00 | 0.00 | 100 | 1018.8 |
| 20260503002005 | 15 | 235 | 12.9 | 22.5 | 0.00 | 0.00 | 0.00 | 100 | 1018.8 |
| 20260503001505 | 15 | 247 | 11.3 | 19.3 | 0.00 | 0.00 | 0.00 | 100 | 1018.9 |
| 20260502235506 | 15 | 250 | 16.1 | 20.9 | 0.00 | 0.00 | 0.00 | 100 | 1018.9 |
| 20260502233005 | 15 | 254 | 16.1 | 20.9 | 0.00 | 0.00 | 0.00 | 100 | 1019.3 |
| 20260502232504 | 15 | 231 | 11.3 | 16.1 | 0.00 | 0.00 | 0.00 | 100 | 1019.3 |
| 20260502232005 | 15 | 259 | 12.9 | 20.9 | 0.00 | 0.00 | 0.00 | 100 | 1019.4 |
| 20260502231005 | 15 | 236 | 14.5 | 25.7 | 0.00 | 0.00 | 0.00 | 100 | 1019.5 |
| 20260502225505 | 16 | 242 | 11.3 | 19.3 | 0.00 | 0.00 | 0.00 | 100 | 1019.6 |
| 20260502224505 | 16 | 255 | 14.5 | 25.7 | 0.00 | 0.00 | 0.00 | 100 | 1019.7 |
| 20260502223005 | 16 | 257 | 14.5 | 27.4 | 0.00 | 0.00 | 0.00 | 100 | 1019.5 |
| 20260502221505 | 15 | 207 | 12.9 | 20.9 | 0.00 | 0.00 | 0.00 | 100 | 1019.8 |
| 20260502220006 | 16 | 223 | 17.7 | 25.7 | 0.00 | 0.00 | 0.00 | 100 | 1019.9 |
| 20260502215005 | 16 | 244 | 14.5 | 24.1 | 0.00 | 0.00 | 0.00 | 100 | 1020.0 |
| 20260502214505 | 16 | 239 | 14.5 | 24.1 | 0.00 | 0.00 | 0.00 | 100 | 1019.9 |
| 20260502214005 | 16 | 273 | 17.7 | 24.1 | 0.00 | 0.00 | 0.00 | 100 | 1020.1 |
| 20260502213005 | 16 | 251 | 17.7 | 29.0 | 0.00 | 0.00 | 0.00 | 100 | 1020.1 |
| 20260502212505 | 16 | 285 | 14.5 | 19.3 | 0.00 | 0.00 | 0.00 | 100 | 1020.3 |
| 20260502212005 | 16 | 271 | 17.7 | 24.1 | 0.00 | 0.00 | 0.00 | 100 | 1020.3 |
| 20260502211506 | 15 | 244 | 12.9 | 20.9 | 0.00 | 0.00 | 0.00 | 100 | 1020.3 |
| 20260502210005 | 16 | 226 | 8.0 | 16.1 | 0.00 | 0.00 | 0.00 | 100 | 1020.5 |
| 20260502205505 | 16 | 244 | 12.9 | 24.1 | 0.00 | 0.00 | 0.00 | 100 | 1020.5 |
| 20260502204005 | 15 | 292 | 4.8 | 25.7 | 0.00 | 0.00 | 0.00 | 100 | 1020.9 |
| 20260502202005 | 15 | 283 | 16.1 | 25.7 | 0.00 | 0.00 | 0.00 | 100 | 1021.3 |
| 20260502201005 | 15 | 283 | 14.5 | 24.1 | 0.00 | 0.00 | 0.00 | 100 | 1021.3 |
| 20260502195005 | 15 | 264 | 11.3 | 19.3 | 0.00 | 0.00 | 0.00 | 100 | 1021.5 |
| 20260502193504 | 15 | 267 | 16.1 | 27.4 | 0.00 | 0.00 | 0.00 | 100 | 1021.7 |
| 20260502193005 | 15 | 256 | 9.7 | 22.5 | 0.00 | 0.00 | 0.00 | 100 | 1021.7 |
| 20260502192505 | 15 | 282 | 12.9 | 27.4 | 0.00 | 0.00 | 0.00 | 100 | 1021.9 |
| 20260502192005 | 14 | 243 | 11.3 | 19.3 | 0.00 | 0.00 | 0.00 | 100 | 1022.0 |
| 20260502190505 | 14 | 295 | 11.3 | 14.5 | 0.00 | 0.00 | 0.00 | 100 | 1022.0 |
| 20260502185504 | 15 | 266 | 11.3 | 25.7 | 0.00 | 0.00 | 0.00 | 100 | 1022.1 |
| 20260502185005 | 14 | 286 | 4.8 | 19.3 | 0.00 | 0.00 | 0.00 | 100 | 1022.2 |
| 20260502184005 | 16 | 323 | 14.5 | 20.9 | 0.00 | 0.00 | 0.00 | 100 | 1022.3 |
| 20260502183505 | 15 | 323 | 14.5 | 19.3 | 0.00 | 0.00 | 0.00 | 100 | 1022.3 |
| 20260502182505 | 14 | 154 | 4.8 | 8.0 | 0.00 | 0.00 | 0.00 | 100 | 1022.6 |
| 20260502182005 | 15 | 50 | 8.0 | 19.3 | 0.00 | 0.00 | 0.00 | 100 | 1022.7 |
| 20260502181505 | 15 | 269 | 14.5 | 25.7 | 0.00 | 0.00 | 0.00 | 100 | 1022.6 |
| 20260502181005 | 14 | 272 | 11.3 | 29.0 | 0.00 | 0.00 | 0.00 | 100 | 1022.6 |
| 20260502180505 | 14 | 171 | 12.9 | 19.3 | 0.00 | 0.00 | 0.00 | 100 | 1022.7 |
| 20260502162505 | 13 | 280 | 12.9 | 19.3 | 0.00 | 0.00 | 0.00 | 100 | 1023.4 |
| 20260502162005 | 13 | 193 | 4.8 | 11.3 | 0.00 | 0.00 | 0.00 | 100 | 1023.4 |
| 20260502150504 | 11 | 255 | 8.0 | 12.9 | 0.00 | 0.00 | 0.00 | 100 | 1023.9 |
| 20260502123004 | 2 | 340 | 1.6 | 3.2 | 0.00 | 0.00 | 0.00 | 100 | 1024.0 |
| 20260502121005 | 1 | 340 | 0.0 | 3.2 | 0.00 | 0.00 | 0.00 | 100 | 1024.0 |
| 20260502120504 | 0 | 340 | 0.0 | 0.0 | 0.00 | 0.00 | 0.00 | 100 | 1023.8 |
| 20260502115004 | 0 | 340 | 0.0 | 1.6 | 0.00 | 0.00 | 0.00 | 100 | 1023.7 |
| 20260502114004 | 0 | 340 | 0.0 | 0.0 | 0.00 | 0.00 | 0.00 | 100 | 1023.6 |
| 20260502113504 | 0 | 340 | 0.0 | 1.6 | 0.00 | 0.00 | 0.00 | 100 | 1023.5 |
| 20260502112504 | 0 | 340 | 0.0 | 3.2 | 0.00 | 0.00 | 0.00 | 100 | 1023.4 |
| 20260502112004 | 0 | 340 | 0.0 | 3.2 | 0.00 | 0.00 | 0.00 | 100 | 1023.3 |
| 20260502111504 | 0 | 340 | 1.6 | 1.6 | 0.00 | 0.00 | 0.00 | 100 | 1023.4 |
| 20260502111005 | 0 | 340 | 1.6 | 1.6 | 0.00 | 0.00 | 0.00 | 100 | 1023.4 |
| 20260502110004 | 0 | 340 | 1.6 | 3.2 | 0.00 | 0.00 | 0.00 | 100 | 1023.4 |
| 20260502105504 | 0 | 340 | 1.6 | 1.6 | 0.00 | 0.00 | 0.00 | 100 | 1023.3 |
| 20260502105004 | 0 | 340 | 3.2 | 3.2 | 0.00 | 0.00 | 0.00 | 100 | 1023.4 |
| 20260502104504 | 0 | 340 | 3.2 | 3.2 | 0.00 | 0.00 | 0.00 | 100 | 1023.2 |
| 20260502103004 | 0 | 340 | 1.6 | 3.2 | 0.00 | 0.00 | 0.00 | 100 | 1023.3 |
| 20260502102504 | 0 | 340 | 1.6 | 1.6 | 0.00 | 0.00 | 0.00 | 100 | 1023.2 |
| 20260502102004 | 0 | 340 | 1.6 | 1.6 | 0.00 | 0.00 | 0.00 | 100 | 1023.1 |
| 20260502101504 | 0 | 340 | 1.6 | 1.6 | 0.00 | 0.00 | 0.00 | 100 | 1023.1 |
| 20260502100504 | 1 | 340 | 1.6 | 1.6 | 0.00 | 0.00 | 0.00 | 100 | 1023.1 |
| 20260502091505 | 1 | 340 | 0.0 | 3.2 | 0.00 | 0.00 | 0.00 | 100 | 1022.9 |
| 20260502090504 | 1 | 340 | 0.0 | 1.6 | 0.00 | 0.00 | 0.00 | 100 | 1022.9 |
| 20260502071504 | 3 | 71 | 6.4 | 8.0 | 0.00 | 0.00 | 0.00 | 100 | 1023.1 |
| 20260502070504 | 3 | 95 | 8.0 | 12.9 | 0.00 | 0.00 | 0.00 | 100 | 1023.1 |
| 20260502070004 | 3 | 93 | 4.8 | 11.3 | 0.00 | 0.00 | 0.00 | 100 | 1023.2 |
| 20260502064503 | 3 | 87 | 8.0 | 11.3 | 0.00 | 0.00 | 0.00 | 100 | 1023.3 |
| 20260502063004 | 3 | 77 | 9.7 | 14.5 | 0.00 | 0.00 | 0.00 | 100 | 1023.4 |
| 20260502062503 | 4 | 78 | 9.7 | 14.5 | 0.00 | 0.00 | 0.00 | 100 | 1023.3 |
| 20260502061004 | 4 | 74 | 9.7 | 16.1 | 0.00 | 0.00 | 0.00 | 100 | 1023.3 |
| 20260502060004 | 4 | 74 | 9.7 | 16.1 | 0.00 | 0.00 | 0.00 | 100 | 1023.2 |
| 20260502054503 | 4 | 69 | 9.7 | 14.5 | 0.00 | 0.00 | 0.00 | 100 | 1023.1 |
| 20260502053503 | 4 | 76 | 8.0 | 14.5 | 0.00 | 0.00 | 0.00 | 100 | 1023.1 |
| 20260502053004 | 4 | 82 | 9.7 | 14.5 | 0.00 | 0.00 | 0.00 | 100 | 1023.1 |
| 20260502052004 | 4 | 66 | 8.0 | 9.7 | 0.00 | 0.00 | 0.00 | 100 | 1023.0 |
| 20260502051503 | 4 | 59 | 8.0 | 9.7 | 0.00 | 0.00 | 0.00 | 100 | 1023.1 |
| 20260502050504 | 4 | 57 | 4.8 | 8.0 | 0.00 | 0.00 | 0.00 | 100 | 1023.0 |
| 20260502050004 | 5 | 61 | 6.4 | 8.0 | 0.00 | 0.00 | 0.00 | 100 | 1023.0 |
| 20260502045504 | 5 | 63 | 8.0 | 12.9 | 0.00 | 0.00 | 0.00 | 100 | 1022.8 |
| 20260502045004 | 5 | 63 | 9.7 | 12.9 | 0.00 | 0.00 | 0.00 | 100 | 1022.7 |
| 20260502044504 | 5 | 56 | 9.7 | 12.9 | 0.00 | 0.00 | 0.00 | 100 | 1022.6 |
| 20260502044004 | 5 | 51 | 8.0 | 14.5 | 0.00 | 0.00 | 0.00 | 100 | 1022.6 |
| 20260502043004 | 5 | 35 | 8.0 | 12.9 | 0.00 | 0.00 | 0.00 | 100 | 1022.6 |
| 20260502041004 | 4 | 356 | 3.2 | 4.8 | 0.00 | 0.00 | 0.00 | 100 | 1022.2 |
| 20260502040506 | 4 | 355 | 3.2 | 4.8 | 0.00 | 0.00 | 0.00 | 100 | 1022.3 |
| 20260502035505 | 3 | 335 | 3.2 | 4.8 | 0.00 | 0.00 | 0.00 | 100 | 1022.2 |
| 20260502033506 | 5 | 348 | 3.2 | 4.8 | 0.00 | 0.00 | 0.00 | 100 | 1022.0 |
| 20260502033006 | 5 | 348 | 3.2 | 4.8 | 0.00 | 0.00 | 0.00 | 100 | 1022.0 |
| 20260502032506 | 5 | 348 | 3.2 | 3.2 | 0.00 | 0.00 | 0.00 | 100 | 1022.0 |
| 20260502032006 | 5 | 348 | 3.2 | 3.2 | 0.00 | 0.00 | 0.00 | 100 | 1022.0 |
| 20260502031506 | 5 | 348 | 1.6 | 1.6 | 0.00 | 0.00 | 0.00 | 100 | 1021.9 |
| 20260502024005 | 6 | 5 | 3.2 | 4.8 | 0.00 | 0.00 | 0.00 | 100 | 1021.6 |
| 20260502021506 | 6 | 14 | 4.8 | 4.8 | 0.00 | 0.00 | 0.00 | 100 | 1021.2 |
| 20260502021005 | 7 | 13 | 4.8 | 4.8 | 0.00 | 0.00 | 0.00 | 100 | 1021.2 |
| 20260502020505 | 7 | 15 | 4.8 | 4.8 | 0.00 | 0.00 | 0.00 | 100 | 1021.1 |
| 20260502020006 | 7 | 15 | 3.2 | 4.8 | 0.00 | 0.00 | 0.00 | 100 | 1021.1 |
| 20260502014505 | 7 | 26 | 4.8 | 4.8 | 0.00 | 0.00 | 0.00 | 100 | 1020.8 |
| 20260502014006 | 7 | 30 | 4.8 | 4.8 | 0.00 | 0.00 | 0.00 | 100 | 1020.9 |
| 20260502013505 | 7 | 37 | 4.8 | 4.8 | 0.00 | 0.00 | 0.00 | 100 | 1020.8 |
| 20260502013005 | 7 | 36 | 3.2 | 3.2 | 0.00 | 0.00 | 0.00 | 100 | 1020.6 |
| 20260502012505 | 8 | 36 | 3.2 | 4.8 | 0.00 | 0.00 | 0.00 | 100 | 1020.5 |
| 20260502011005 | 9 | 33 | 4.8 | 4.8 | 0.00 | 0.00 | 0.00 | 100 | 1020.5 |
| 20260502010505 | 9 | 40 | 4.8 | 8.0 | 0.00 | 0.00 | 0.00 | 100 | 1020.4 |
| 20260502005006 | 10 | 35 | 8.0 | 8.0 | 0.00 | 0.00 | 0.00 | 100 | 1020.3 |